TimeEDT,TemperatureF,Dew PointF,Humidity,Sea Level PressureIn,VisibilityMPH,Wind Direction,Wind SpeedMPH,Gust SpeedMPH,PrecipitationIn,Events,Conditions,WindDirDegrees,DateUTC
12:58 AM,54.3,36.0,50,29.92,10.0,SW,11.5,-,N/A,,Clear,230,2013-03-16 04:58:00
1:58 AM,52.5,37.2,56,29.91,10.0,WSW,9.2,-,N/A,,Clear,240,2013-03-16 05:58:00
2:58 AM,51.8,38.3,60,29.89,10.0,WSW,10.4,-,N/A,,Clear,240,2013-03-16 06:58:00
3:58 AM,52.5,38.8,60,29.87,10.0,WSW,8.1,-,N/A,,Clear,250,2013-03-16 07:58:00
4:58 AM,53.2,39.7,60,29.87,10.0,WSW,9.2,-,N/A,,Clear,250,2013-03-16 08:58:00
5:58 AM,52.5,40.1,63,29.87,10.0,WSW,8.1,-,N/A,,Clear,240,2013-03-16 09:58:00
6:58 AM,54.3,40.8,60,29.87,10.0,WSW,9.2,-,N/A,,Partly Cloudy,250,2013-03-16 10:58:00
7:58 AM,54.7,41.2,60,29.88,10.0,WSW,10.4,-,N/A,,Mostly Cloudy,240,2013-03-16 11:58:00
8:58 AM,56.8,42.3,58,29.88,10.0,SW,10.4,-,N/A,,Clear,230,2013-03-16 12:58:00
9:58 AM,61.2,43.5,52,29.87,10.0,WSW,9.2,-,N/A,,Clear,250,2013-03-16 13:58:00
10:58 AM,64.0,44.6,49,29.86,10.0,WSW,13.8,-,N/A,,Scattered Clouds,250,2013-03-16 14:58:00
11:58 AM,68.0,45.3,44,29.84,10.0,SW,16.1,-,N/A,,Scattered Clouds,230,2013-03-16 15:58:00
12:58 PM,73.0,46.6,39,29.81,10.0,WSW,11.5,20.7,N/A,,Scattered Clouds,250,2013-03-16 16:58:00
1:58 PM,76.6,45.1,33,29.78,10.0,West,21.9,27.6,N/A,,Clear,260,2013-03-16 17:58:00
2:58 PM,79.0,45.5,31,29.75,10.0,WSW,18.4,-,N/A,,Clear,240,2013-03-16 18:58:00
3:58 PM,80.2,45.0,29,29.73,10.0,WSW,25.3,34.5,N/A,,Clear,240,2013-03-16 19:58:00
4:58 PM,78.6,43.7,29,29.72,10.0,WSW,21.9,33.4,N/A,,Clear,250,2013-03-16 20:58:00
5:58 PM,78.8,43.0,28,29.70,10.0,West,16.1,-,N/A,,Clear,260,2013-03-16 21:58:00
6:58 PM,76.1,43.7,31,29.71,10.0,WSW,17.3,27.6,N/A,,Clear,250,2013-03-16 22:58:00
7:58 PM,73.2,42.1,33,29.74,10.0,WSW,12.7,-,N/A,,Clear,250,2013-03-16 23:58:00
8:58 PM,72.1,40.5,32,29.78,10.0,WSW,16.1,23.0,N/A,,Clear,250,2013-03-17 00:58:00
9:58 PM,72.0,38.8,30,29.82,10.0,WSW,15.0,-,N/A,,Mostly Cloudy,250,2013-03-17 01:58:00
10:58 PM,69.3,38.5,32,29.85,10.0,West,9.2,-,N/A,,Partly Cloudy,260,2013-03-17 02:58:00
11:58 PM,62.2,41.0,46,29.86,10.0,SW,2.3,-,N/A,,Clear,220,2013-03-17 03:58:00